iso_date,Year,Hour,Min,DOY,POS_DOY,Lat,Lon,BP,Ts,Ta,has_bp,has_ts,has_ta,BuoyID,Buoy_Type,Buoy_Owner,Logistics,Hemisphere
2021-09-20T16:00:02Z,2021,16,0,263.6667,263.6667,67.215,-19.067,995.1,7.26,-999.0,yes,yes,no,300234068445280,BD2GHI,AOML,UNKNOWN,North
2021-09-20T18:04:01Z,2021,18,4,263.7528,263.7528,-90.0,-180.0,997.7,7.25,-999.0,yes,yes,no,300234068445280,BD2GHI,AOML,UNKNOWN,North
2021-09-20T19:00:02Z,2021,19,0,263.7917,263.7917,67.232,-19.132,999.0,7.24,-999.0,yes,yes,no,300234068445280,BD2GHI,AOML,UNKNOWN,North
2021-09-20T21:01:00Z,2021,21,1,263.8757,263.8757,67.242,-19.128,1001.9,7.22,-999.0,yes,yes,no,300234068445280,BD2GHI,AOML,UNKNOWN,North
2021-09-20T22:01:03Z,2021,22,1,263.9174,263.9174,67.244,-19.118,1002.9,7.21,-999.0,yes,yes,no,300234068445280,BD2GHI,AOML,UNKNOWN,North
2021-09-20T22:59:57Z,2021,23,0,263.9583,263.9583,67.244,-19.106,1003.3,7.2,-999.0,yes,yes,no,300234068445280,BD2GHI,AOML,UNKNOWN,North
2021-09-21T00:00:00Z,2021,0,0,264.0,264.0,67.244,-19.097,1004.1,7.2,-999.0,yes,yes,no,300234068445280,BD2GHI,AOML,UNKNOWN,North
2021-09-21T01:03:56Z,2021,1,4,264.0444,264.0444,67.242,-19.097,1004.0,7.19,-999.0,yes,yes,no,300234068445280,BD2GHI,AOML,UNKNOWN,North
2021-09-21T02:03:59Z,2021,2,4,264.0861,264.0861,67.239,-19.107,1003.9,7.19,-999.0,yes,yes,no,300234068445280,BD2GHI,AOML,UNKNOWN,North
2021-09-21T03:00:00Z,2021,3,0,264.125,264.125,67.237,-19.128,1003.6,7.17,-999.0,yes,yes,no,300234068445280,BD2GHI,AOML,UNKNOWN,North
2021-09-21T04:00:02Z,2021,4,0,264.1667,264.1667,67.237,-19.155,1003.1,7.18,-999.0,yes,yes,no,300234068445280,BD2GHI,AOML,UNKNOWN,North
2021-09-21T04:59:57Z,2021,5,0,264.2083,264.2083,67.242,-19.181,1001.7,7.17,-999.0,yes,yes,no,300234068445280,BD2GHI,AOML,UNKNOWN,North
2021-09-21T06:04:01Z,2021,6,4,264.2528,264.2528,67.244,-19.209,1000.8,7.17,-999.0,yes,yes,no,300234068445280,BD2GHI,AOML,UNKNOWN,North
2021-09-21T07:03:56Z,2021,7,4,264.2944,264.2944,-90.0,-180.0,999.1,7.17,-999.0,yes,yes,no,300234068445280,BD2GHI,AOML,UNKNOWN,North
2021-09-21T08:03:59Z,2021,8,4,264.3361,264.3361,-90.0,-180.0,996.9,7.16,-999.0,yes,yes,no,300234068445280,BD2GHI,AOML,UNKNOWN,North
2021-09-21T09:02:00Z,2021,9,2,264.3764,264.3764,67.267,-19.221,995.2,7.15,-999.0,yes,yes,no,300234068445280,BD2GHI,AOML,UNKNOWN,North
2021-09-21T10:00:02Z,2021,10,0,264.4167,264.4167,67.269,-19.207,992.2,7.14,-999.0,yes,yes,no,300234068445280,BD2GHI,AOML,UNKNOWN,North
2021-09-21T12:00:00Z,2021,12,0,264.5,264.5,67.266,-19.201,984.9,7.13,-999.0,yes,yes,no,300234068445280,BD2GHI,AOML,UNKNOWN,North
2021-09-21T13:03:56Z,2021,13,4,264.5444,264.5444,-90.0,-180.0,982.0,7.12,-999.0,yes,yes,no,300234068445280,BD2GHI,AOML,UNKNOWN,North
2021-09-21T14:03:59Z,2021,14,4,264.5861,264.5861,-90.0,-180.0,977.9,7.12,-999.0,yes,yes,no,300234068445280,BD2GHI,AOML,UNKNOWN,North
2021-09-21T15:04:01Z,2021,15,4,264.6278,264.6278,-90.0,-180.0,974.9,7.12,-999.0,yes,yes,no,300234068445280,BD2GHI,AOML,UNKNOWN,North
2021-09-21T16:03:56Z,2021,16,4,264.6694,264.6694,-90.0,-180.0,972.8,7.15,-999.0,yes,yes,no,300234068445280,BD2GHI,AOML,UNKNOWN,North
2021-09-21T17:03:59Z,2021,17,4,264.7111,264.7111,67.266,-19.367,971.3,7.16,-999.0,yes,yes,no,300234068445280,BD2GHI,AOML,UNKNOWN,North
2021-09-21T18:01:00Z,2021,18,1,264.7507,264.7507,67.269,-19.4,971.5,7.14,-999.0,yes,yes,no,300234068445280,BD2GHI,AOML,UNKNOWN,North
2021-09-21T19:00:02Z,2021,19,0,264.7917,264.7917,67.272,-19.428,973.0,7.11,-999.0,yes,yes,no,300234068445280,BD2GHI,AOML,UNKNOWN,North
2021-09-21T19:59:57Z,2021,20,0,264.8333,264.8333,67.271,-19.449,975.4,7.08,-999.0,yes,yes,no,300234068445280,BD2GHI,AOML,UNKNOWN,North
2021-09-21T21:01:00Z,2021,21,1,264.8757,264.8757,67.268,-19.465,977.4,7.05,-999.0,yes,yes,no,300234068445280,BD2GHI,AOML,UNKNOWN,North
2021-09-21T22:00:02Z,2021,22,0,264.9167,264.9167,67.263,-19.477,978.9,7.04,-999.0,yes,yes,no,300234068445280,BD2GHI,AOML,UNKNOWN,North
2021-09-21T22:59:57Z,2021,23,0,264.9583,264.9583,67.257,-19.483,980.8,7.0,-999.0,yes,yes,no,300234068445280,BD2GHI,AOML,UNKNOWN,North
2021-09-22T00:02:00Z,2021,0,2,265.0014,265.0014,67.251,-19.49,982.2,6.99,-999.0,yes,yes,no,300234068445280,BD2GHI,AOML,UNKNOWN,North
2021-09-22T01:01:03Z,2021,1,1,265.0424,265.0424,67.244,-19.499,983.6,6.97,-999.0,yes,yes,no,300234068445280,BD2GHI,AOML,UNKNOWN,North
2021-09-22T02:02:58Z,2021,2,3,265.0854,265.0854,67.236,-19.514,984.7,6.96,-999.0,yes,yes,no,300234068445280,BD2GHI,AOML,UNKNOWN,North
2021-09-22T03:04:01Z,2021,3,4,265.1278,265.1278,67.23,-19.532,985.8,6.95,-999.0,yes,yes,no,300234068445280,BD2GHI,AOML,UNKNOWN,North
2021-09-22T04:03:56Z,2021,4,4,265.1694,265.1694,67.226,-19.553,987.1,6.94,-999.0,yes,yes,no,300234068445280,BD2GHI,AOML,UNKNOWN,North
2021-09-22T04:59:57Z,2021,5,0,265.2083,265.2083,67.223,-19.572,987.5,6.93,-999.0,yes,yes,no,300234068445280,BD2GHI,AOML,UNKNOWN,North
2021-09-22T06:00:00Z,2021,6,0,265.25,265.25,67.221,-19.587,987.9,6.91,-999.0,yes,yes,no,300234068445280,BD2GHI,AOML,UNKNOWN,North
2021-09-22T07:01:03Z,2021,7,1,265.2924,265.2924,67.22,-19.589,988.8,6.9,-999.0,yes,yes,no,300234068445280,BD2GHI,AOML,UNKNOWN,North
2021-09-22T07:59:57Z,2021,8,0,265.3333,265.3333,67.219,-19.586,989.3,6.9,-999.0,yes,yes,no,300234068445280,BD2GHI,AOML,UNKNOWN,North
2021-09-22T09:00:00Z,2021,9,0,265.375,265.375,67.214,-19.572,989.8,6.89,-999.0,yes,yes,no,300234068445280,BD2GHI,AOML,UNKNOWN,North
2021-09-22T10:00:02Z,2021,10,0,265.4167,265.4167,67.21,-19.56,989.9,6.88,-999.0,yes,yes,no,300234068445280,BD2GHI,AOML,UNKNOWN,North
2021-09-22T12:00:00Z,2021,12,0,265.5,265.5,67.201,-19.538,990.9,6.88,-999.0,yes,yes,no,300234068445280,BD2GHI,AOML,UNKNOWN,North
2021-09-22T13:00:02Z,2021,13,0,265.5417,265.5417,67.198,-19.533,991.3,6.88,-999.0,yes,yes,no,300234068445280,BD2GHI,AOML,UNKNOWN,North
2021-09-22T14:02:58Z,2021,14,3,265.5854,265.5854,67.194,-19.536,991.9,6.88,-999.0,yes,yes,no,300234068445280,BD2GHI,AOML,UNKNOWN,North
2021-09-22T15:03:01Z,2021,15,3,265.6271,265.6271,67.192,-19.541,992.3,6.87,-999.0,yes,yes,no,300234068445280,BD2GHI,AOML,UNKNOWN,North
2021-09-22T17:00:57Z,2021,17,1,265.709,265.709,67.192,-19.563,993.6,6.86,-999.0,yes,yes,no,300234068445280,BD2GHI,AOML,UNKNOWN,North
2021-09-22T18:03:01Z,2021,18,3,265.7521,265.7521,67.192,-19.571,994.2,6.86,-999.0,yes,yes,no,300234068445280,BD2GHI,AOML,UNKNOWN,North
2021-09-22T19:00:02Z,2021,19,0,265.7917,265.7917,67.192,-19.57,995.1,6.84,-999.0,yes,yes,no,300234068445280,BD2GHI,AOML,UNKNOWN,North
2021-09-22T19:59:57Z,2021,20,0,265.8333,265.8333,67.192,-19.563,996.1,6.82,-999.0,yes,yes,no,300234068445280,BD2GHI,AOML,UNKNOWN,North
2021-09-22T21:00:00Z,2021,21,0,265.875,265.875,67.19,-19.548,996.9,6.82,-999.0,yes,yes,no,300234068445280,BD2GHI,AOML,UNKNOWN,North
2021-09-22T22:00:02Z,2021,22,0,265.9167,265.9167,67.186,-19.53,997.6,6.8,-999.0,yes,yes,no,300234068445280,BD2GHI,AOML,UNKNOWN,North
2021-09-22T22:59:57Z,2021,23,0,265.9583,265.9583,67.179,-19.516,998.5,6.79,-999.0,yes,yes,no,300234068445280,BD2GHI,AOML,UNKNOWN,North
2021-09-23T00:00:00Z,2021,0,0,266.0,266.0,67.171,-19.508,999.1,6.77,-999.0,yes,yes,no,300234068445280,BD2GHI,AOML,UNKNOWN,North
2021-09-23T01:01:03Z,2021,1,1,266.0424,266.0424,67.168,-19.513,999.5,6.78,-999.0,yes,yes,no,300234068445280,BD2GHI,AOML,UNKNOWN,North
2021-09-23T01:59:57Z,2021,2,0,266.0833,266.0833,67.167,-19.516,1000.2,6.78,-999.0,yes,yes,no,300234068445280,BD2GHI,AOML,UNKNOWN,North
2021-09-23T03:00:00Z,2021,3,0,266.125,266.125,67.168,-19.518,1000.5,6.76,-999.0,yes,yes,no,300234068445280,BD2GHI,AOML,UNKNOWN,North
2021-09-23T04:00:02Z,2021,4,0,266.1667,266.1667,67.17,-19.523,1000.7,6.76,-999.0,yes,yes,no,300234068445280,BD2GHI,AOML,UNKNOWN,North
2021-09-23T04:59:57Z,2021,5,0,266.2083,266.2083,67.172,-19.529,1000.8,6.77,-999.0,yes,yes,no,300234068445280,BD2GHI,AOML,UNKNOWN,North
2021-09-23T06:00:00Z,2021,6,0,266.25,266.25,67.172,-19.538,1000.8,6.76,-999.0,yes,yes,no,300234068445280,BD2GHI,AOML,UNKNOWN,North
2021-09-23T07:00:02Z,2021,7,0,266.2917,266.2917,67.171,-19.54,1000.7,6.74,-999.0,yes,yes,no,300234068445280,BD2GHI,AOML,UNKNOWN,North
2021-09-23T07:59:57Z,2021,8,0,266.3333,266.3333,67.171,-19.537,1000.7,6.75,-999.0,yes,yes,no,300234068445280,BD2GHI,AOML,UNKNOWN,North
2021-09-23T09:00:00Z,2021,9,0,266.375,266.375,67.168,-19.525,1000.1,6.75,-999.0,yes,yes,no,300234068445280,BD2GHI,AOML,UNKNOWN,North
2021-09-23T10:01:03Z,2021,10,1,266.4174,266.4174,67.164,-19.517,1000.1,6.76,-999.0,yes,yes,no,300234068445280,BD2GHI,AOML,UNKNOWN,North
2021-09-23T12:00:00Z,2021,12,0,266.5,266.5,67.159,-19.508,999.3,6.76,-999.0,yes,yes,no,300234068445280,BD2GHI,AOML,UNKNOWN,North
2021-09-23T13:00:02Z,2021,13,0,266.5417,266.5417,67.158,-19.502,998.6,6.75,-999.0,yes,yes,no,300234068445280,BD2GHI,AOML,UNKNOWN,North
2021-09-23T13:59:57Z,2021,14,0,266.5833,266.5833,67.161,-19.509,998.0,6.78,-999.0,yes,yes,no,300234068445280,BD2GHI,AOML,UNKNOWN,North
2021-09-23T15:01:00Z,2021,15,1,266.6257,266.6257,67.161,-19.511,997.3,6.78,-999.0,yes,yes,no,300234068445280,BD2GHI,AOML,UNKNOWN,North
2021-09-23T16:00:02Z,2021,16,0,266.6667,266.6667,67.163,-19.514,996.4,6.77,-999.0,yes,yes,no,300234068445280,BD2GHI,AOML,UNKNOWN,North
2021-09-23T16:59:57Z,2021,17,0,266.7083,266.7083,67.165,-19.519,995.8,6.76,-999.0,yes,yes,no,300234068445280,BD2GHI,AOML,UNKNOWN,North
2021-09-23T18:00:00Z,2021,18,0,266.75,266.75,67.166,-19.524,995.5,6.76,-999.0,yes,yes,no,300234068445280,BD2GHI,AOML,UNKNOWN,North
2021-09-23T19:00:02Z,2021,19,0,266.7917,266.7917,67.164,-19.53,995.3,6.75,-999.0,yes,yes,no,300234068445280,BD2GHI,AOML,UNKNOWN,North
2021-09-23T19:59:57Z,2021,20,0,266.8333,266.8333,67.163,-19.534,995.5,6.75,-999.0,yes,yes,no,300234068445280,BD2GHI,AOML,UNKNOWN,North
2021-09-23T21:01:00Z,2021,21,1,266.8757,266.8757,67.161,-19.538,995.4,6.75,-999.0,yes,yes,no,300234068445280,BD2GHI,AOML,UNKNOWN,North
2021-09-23T22:01:03Z,2021,22,1,266.9174,266.9174,67.161,-19.544,995.7,6.74,-999.0,yes,yes,no,300234068445280,BD2GHI,AOML,UNKNOWN,North
2021-09-23T23:03:59Z,2021,23,4,266.9611,266.9611,67.162,-19.543,996.0,6.73,-999.0,yes,yes,no,300234068445280,BD2GHI,AOML,UNKNOWN,North
2021-09-24T00:00:00Z,2021,0,0,267.0,267.0,67.164,-19.539,996.4,6.71,-999.0,yes,yes,no,300234068445280,BD2GHI,AOML,UNKNOWN,North
2021-09-24T01:01:03Z,2021,1,1,267.0424,267.0424,67.167,-19.536,996.6,6.7,-999.0,yes,yes,no,300234068445280,BD2GHI,AOML,UNKNOWN,North
2021-09-24T02:00:57Z,2021,2,1,267.084,267.084,67.169,-19.532,997.0,6.69,-999.0,yes,yes,no,300234068445280,BD2GHI,AOML,UNKNOWN,North
2021-09-24T03:01:00Z,2021,3,1,267.1257,267.1257,67.17,-19.525,997.2,6.69,-999.0,yes,yes,no,300234068445280,BD2GHI,AOML,UNKNOWN,North
2021-09-24T04:03:04Z,2021,4,3,267.1688,267.1688,67.17,-19.519,997.7,6.68,-999.0,yes,yes,no,300234068445280,BD2GHI,AOML,UNKNOWN,North
2021-09-24T05:00:57Z,2021,5,1,267.209,267.209,67.169,-19.524,998.1,6.68,-999.0,yes,yes,no,300234068445280,BD2GHI,AOML,UNKNOWN,North
2021-09-24T06:01:00Z,2021,6,1,267.2507,267.2507,67.166,-19.528,998.7,6.66,-999.0,yes,yes,no,300234068445280,BD2GHI,AOML,UNKNOWN,North
2021-09-24T07:01:03Z,2021,7,1,267.2924,267.2924,67.163,-19.542,999.3,6.65,-999.0,yes,yes,no,300234068445280,BD2GHI,AOML,UNKNOWN,North
2021-09-24T08:01:58Z,2021,8,2,267.3347,267.3347,67.162,-19.554,999.9,6.64,-999.0,yes,yes,no,300234068445280,BD2GHI,AOML,UNKNOWN,North
2021-09-24T09:00:00Z,2021,9,0,267.375,267.375,67.161,-19.558,1000.4,6.65,-999.0,yes,yes,no,300234068445280,BD2GHI,AOML,UNKNOWN,North
2021-09-24T10:02:03Z,2021,10,2,267.4181,267.4181,67.162,-19.554,1000.6,6.64,-999.0,yes,yes,no,300234068445280,BD2GHI,AOML,UNKNOWN,North
2021-09-24T10:59:57Z,2021,11,0,267.4583,267.4583,67.163,-19.543,1001.2,6.64,-999.0,yes,yes,no,300234068445280,BD2GHI,AOML,UNKNOWN,North
2021-09-24T12:00:00Z,2021,12,0,267.5,267.5,67.163,-19.528,1001.7,6.65,-999.0,yes,yes,no,300234068445280,BD2GHI,AOML,UNKNOWN,North
2021-09-24T13:01:03Z,2021,13,1,267.5424,267.5424,67.162,-19.512,1002.6,6.65,-999.0,yes,yes,no,300234068445280,BD2GHI,AOML,UNKNOWN,North
2021-09-24T14:00:57Z,2021,14,1,267.584,267.584,67.161,-19.503,1002.9,6.65,-999.0,yes,yes,no,300234068445280,BD2GHI,AOML,UNKNOWN,North
2021-09-24T15:01:00Z,2021,15,1,267.6257,267.6257,67.158,-19.493,1003.3,6.65,-999.0,yes,yes,no,300234068445280,BD2GHI,AOML,UNKNOWN,North
2021-09-24T16:00:02Z,2021,16,0,267.6667,267.6667,67.156,-19.49,1003.6,6.66,-999.0,yes,yes,no,300234068445280,BD2GHI,AOML,UNKNOWN,North
2021-09-24T17:00:57Z,2021,17,1,267.709,267.709,67.153,-19.494,1004.0,6.65,-999.0,yes,yes,no,300234068445280,BD2GHI,AOML,UNKNOWN,North
2021-09-24T18:04:01Z,2021,18,4,267.7528,267.7528,67.151,-19.501,1004.7,6.63,-999.0,yes,yes,no,300234068445280,BD2GHI,AOML,UNKNOWN,North
2021-09-24T19:00:02Z,2021,19,0,267.7917,267.7917,67.148,-19.511,1005.2,6.62,-999.0,yes,yes,no,300234068445280,BD2GHI,AOML,UNKNOWN,North
2021-09-24T19:59:57Z,2021,20,0,267.8333,267.8333,67.148,-19.524,1006.0,6.61,-999.0,yes,yes,no,300234068445280,BD2GHI,AOML,UNKNOWN,North
2021-09-24T21:00:00Z,2021,21,0,267.875,267.875,67.149,-19.526,1006.0,6.61,-999.0,yes,yes,no,300234068445280,BD2GHI,AOML,UNKNOWN,North
2021-09-24T22:00:02Z,2021,22,0,267.9167,267.9167,67.15,-19.521,1006.2,6.6,-999.0,yes,yes,no,300234068445280,BD2GHI,AOML,UNKNOWN,North
2021-09-24T23:01:58Z,2021,23,2,267.9597,267.9597,67.15,-19.511,1006.3,6.6,-999.0,yes,yes,no,300234068445280,BD2GHI,AOML,UNKNOWN,North
2021-09-25T00:00:00Z,2021,0,0,268.0,268.0,67.15,-19.5,1006.3,6.59,-999.0,yes,yes,no,300234068445280,BD2GHI,AOML,UNKNOWN,North
2021-09-25T01:00:02Z,2021,1,0,268.0417,268.0417,67.15,-19.487,1006.4,6.58,-999.0,yes,yes,no,300234068445280,BD2GHI,AOML,UNKNOWN,North
2021-09-25T01:59:57Z,2021,2,0,268.0833,268.0833,67.148,-19.478,1006.8,6.57,-999.0,yes,yes,no,300234068445280,BD2GHI,AOML,UNKNOWN,North
2021-09-25T03:04:01Z,2021,3,4,268.1278,268.1278,67.147,-19.47,1006.9,6.57,-999.0,yes,yes,no,300234068445280,BD2GHI,AOML,UNKNOWN,North
2021-09-25T04:03:04Z,2021,4,3,268.1688,268.1688,67.147,-19.472,1006.5,6.55,-999.0,yes,yes,no,300234068445280,BD2GHI,AOML,UNKNOWN,North
2021-09-25T04:59:57Z,2021,5,0,268.2083,268.2083,67.144,-19.484,1006.2,6.54,-999.0,yes,yes,no,300234068445280,BD2GHI,AOML,UNKNOWN,North
2021-09-25T06:00:00Z,2021,6,0,268.25,268.25,67.141,-19.5,1005.9,6.52,-999.0,yes,yes,no,300234068445280,BD2GHI,AOML,UNKNOWN,North
2021-09-25T07:01:03Z,2021,7,1,268.2924,268.2924,67.137,-19.52,1006.1,6.52,-999.0,yes,yes,no,300234068445280,BD2GHI,AOML,UNKNOWN,North
2021-09-25T08:02:58Z,2021,8,3,268.3354,268.3354,67.136,-19.544,1006.0,6.5,-999.0,yes,yes,no,300234068445280,BD2GHI,AOML,UNKNOWN,North
2021-09-25T09:00:00Z,2021,9,0,268.375,268.375,67.138,-19.561,1006.1,6.51,-999.0,yes,yes,no,300234068445280,BD2GHI,AOML,UNKNOWN,North
2021-09-25T10:00:02Z,2021,10,0,268.4167,268.4167,67.141,-19.571,1006.3,6.49,-999.0,yes,yes,no,300234068445280,BD2GHI,AOML,UNKNOWN,North
2021-09-25T11:03:59Z,2021,11,4,268.4611,268.4611,-90.0,-180.0,1006.2,6.49,-999.0,yes,yes,no,300234068445280,BD2GHI,AOML,UNKNOWN,North
2021-09-25T12:03:01Z,2021,12,3,268.5021,268.5021,67.147,-19.574,1006.0,6.49,-999.0,yes,yes,no,300234068445280,BD2GHI,AOML,UNKNOWN,North
2021-09-25T13:00:02Z,2021,13,0,268.5417,268.5417,67.15,-19.569,1005.8,6.48,-999.0,yes,yes,no,300234068445280,BD2GHI,AOML,UNKNOWN,North
2021-09-25T13:59:57Z,2021,14,0,268.5833,268.5833,67.151,-19.561,1005.5,6.46,-999.0,yes,yes,no,300234068445280,BD2GHI,AOML,UNKNOWN,North
2021-09-25T15:00:00Z,2021,15,0,268.625,268.625,67.151,-19.555,1005.3,6.46,-999.0,yes,yes,no,300234068445280,BD2GHI,AOML,UNKNOWN,North
2021-09-25T16:03:04Z,2021,16,3,268.6688,268.6688,67.15,-19.558,1005.0,6.44,-999.0,yes,yes,no,300234068445280,BD2GHI,AOML,UNKNOWN,North
2021-09-25T17:00:57Z,2021,17,1,268.709,268.709,67.147,-19.562,1004.4,6.44,-999.0,yes,yes,no,300234068445280,BD2GHI,AOML,UNKNOWN,North
2021-09-25T18:03:01Z,2021,18,3,268.7521,268.7521,67.141,-19.575,1004.4,6.43,-999.0,yes,yes,no,300234068445280,BD2GHI,AOML,UNKNOWN,North
2021-09-25T19:00:02Z,2021,19,0,268.7917,268.7917,67.137,-19.599,1004.5,6.41,-999.0,yes,yes,no,300234068445280,BD2GHI,AOML,UNKNOWN,North
2021-09-25T20:03:59Z,2021,20,4,268.8361,268.8361,-90.0,-180.0,1004.4,6.4,-999.0,yes,yes,no,300234068445280,BD2GHI,AOML,UNKNOWN,North
2021-09-25T21:04:01Z,2021,21,4,268.8778,268.8778,-90.0,-180.0,1004.6,6.39,-999.0,yes,yes,no,300234068445280,BD2GHI,AOML,UNKNOWN,North
2021-09-25T22:01:03Z,2021,22,1,268.9174,268.9174,67.139,-19.668,1004.2,6.38,-999.0,yes,yes,no,300234068445280,BD2GHI,AOML,UNKNOWN,North
2021-09-25T23:02:58Z,2021,23,3,268.9604,268.9604,67.142,-19.678,1003.8,6.36,-999.0,yes,yes,no,300234068445280,BD2GHI,AOML,UNKNOWN,North
2021-09-26T00:01:00Z,2021,0,1,269.0007,269.0007,67.145,-19.687,1003.9,6.35,-999.0,yes,yes,no,300234068445280,BD2GHI,AOML,UNKNOWN,North
2021-09-26T01:01:03Z,2021,1,1,269.0424,269.0424,67.147,-19.69,1003.7,6.34,-999.0,yes,yes,no,300234068445280,BD2GHI,AOML,UNKNOWN,North
2021-09-26T02:02:58Z,2021,2,3,269.0854,269.0854,67.149,-19.691,1003.6,6.32,-999.0,yes,yes,no,300234068445280,BD2GHI,AOML,UNKNOWN,North
2021-09-26T03:00:00Z,2021,3,0,269.125,269.125,67.15,-19.692,1003.2,6.31,-999.0,yes,yes,no,300234068445280,BD2GHI,AOML,UNKNOWN,North
2021-09-26T04:00:02Z,2021,4,0,269.1667,269.1667,67.149,-19.696,1002.9,6.29,-999.0,yes,yes,no,300234068445280,BD2GHI,AOML,UNKNOWN,North
2021-09-26T05:03:59Z,2021,5,4,269.2111,269.2111,-90.0,-180.0,1002.8,6.27,-999.0,yes,yes,no,300234068445280,BD2GHI,AOML,UNKNOWN,North
2021-09-26T06:01:00Z,2021,6,1,269.2507,269.2507,67.143,-19.732,1002.5,6.26,-999.0,yes,yes,no,300234068445280,BD2GHI,AOML,UNKNOWN,North
2021-09-26T07:01:03Z,2021,7,1,269.2924,269.2924,67.14,-19.762,1002.8,6.24,-999.0,yes,yes,no,300234068445280,BD2GHI,AOML,UNKNOWN,North
2021-09-26T07:59:57Z,2021,8,0,269.3333,269.3333,67.138,-19.797,1002.4,6.23,-999.0,yes,yes,no,300234068445280,BD2GHI,AOML,UNKNOWN,North
2021-09-26T09:00:00Z,2021,9,0,269.375,269.375,67.138,-19.834,1002.6,6.19,-999.0,yes,yes,no,300234068445280,BD2GHI,AOML,UNKNOWN,North
2021-09-26T10:02:03Z,2021,10,2,269.4181,269.4181,67.142,-19.865,1001.9,6.16,-999.0,yes,yes,no,300234068445280,BD2GHI,AOML,UNKNOWN,North
2021-09-26T11:00:57Z,2021,11,1,269.459,269.459,67.148,-19.885,1001.3,6.12,-999.0,yes,yes,no,300234068445280,BD2GHI,AOML,UNKNOWN,North
2021-09-26T12:00:00Z,2021,12,0,269.5,269.5,67.154,-19.894,1000.8,6.09,-999.0,yes,yes,no,300234068445280,BD2GHI,AOML,UNKNOWN,North
2021-09-26T13:00:02Z,2021,13,0,269.5417,269.5417,67.16,-19.9,1000.5,6.05,-999.0,yes,yes,no,300234068445280,BD2GHI,AOML,UNKNOWN,North
2021-09-26T14:02:58Z,2021,14,3,269.5854,269.5854,67.161,-19.906,1000.7,6.01,-999.0,yes,yes,no,300234068445280,BD2GHI,AOML,UNKNOWN,North
2021-09-26T15:00:00Z,2021,15,0,269.625,269.625,67.163,-19.916,1000.5,5.96,-999.0,yes,yes,no,300234068445280,BD2GHI,AOML,UNKNOWN,North
2021-09-26T16:00:02Z,2021,16,0,269.6667,269.6667,67.163,-19.925,1000.3,5.9,-999.0,yes,yes,no,300234068445280,BD2GHI,AOML,UNKNOWN,North
2021-09-26T16:59:57Z,2021,17,0,269.7083,269.7083,67.163,-19.944,1000.1,5.86,-999.0,yes,yes,no,300234068445280,BD2GHI,AOML,UNKNOWN,North
2021-09-26T18:00:00Z,2021,18,0,269.75,269.75,67.16,-19.967,999.8,5.82,-999.0,yes,yes,no,300234068445280,BD2GHI,AOML,UNKNOWN,North
2021-09-26T19:02:03Z,2021,19,2,269.7931,269.7931,67.16,-19.996,999.9,5.78,-999.0,yes,yes,no,300234068445280,BD2GHI,AOML,UNKNOWN,North
2021-09-26T19:59:57Z,2021,20,0,269.8333,269.8333,67.158,-20.031,1000.0,5.74,-999.0,yes,yes,no,300234068445280,BD2GHI,AOML,UNKNOWN,North
2021-09-26T21:00:00Z,2021,21,0,269.875,269.875,67.158,-20.07,999.9,5.68,-999.0,yes,yes,no,300234068445280,BD2GHI,AOML,UNKNOWN,North
2021-09-26T22:03:56Z,2021,22,4,269.9194,269.9194,-90.0,-180.0,999.5,5.61,-999.0,yes,yes,no,300234068445280,BD2GHI,AOML,UNKNOWN,North
2021-09-26T23:03:59Z,2021,23,4,269.9611,269.9611,-90.0,-180.0,998.9,5.54,-999.0,yes,yes,no,300234068445280,BD2GHI,AOML,UNKNOWN,North
2021-09-27T00:04:01Z,2021,0,4,270.0028,270.0028,-90.0,-180.0,998.4,5.48,-999.0,yes,yes,no,300234068445280,BD2GHI,AOML,UNKNOWN,North
2021-09-27T01:03:56Z,2021,1,4,270.0444,270.0444,-90.0,-180.0,997.5,5.43,-999.0,yes,yes,no,300234068445280,BD2GHI,AOML,UNKNOWN,North
2021-09-27T02:03:59Z,2021,2,4,270.0861,270.0861,-90.0,-180.0,996.7,5.38,-999.0,yes,yes,no,300234068445280,BD2GHI,AOML,UNKNOWN,North
2021-09-27T03:00:00Z,2021,3,0,270.125,270.125,67.154,-20.146,995.6,5.34,-999.0,yes,yes,no,300234068445280,BD2GHI,AOML,UNKNOWN,North
2021-09-27T04:00:02Z,2021,4,0,270.1667,270.1667,67.15,-20.164,994.6,5.3,-999.0,yes,yes,no,300234068445280,BD2GHI,AOML,UNKNOWN,North
2021-09-27T04:59:57Z,2021,5,0,270.2083,270.2083,67.144,-20.182,994.0,5.27,-999.0,yes,yes,no,300234068445280,BD2GHI,AOML,UNKNOWN,North
2021-09-27T06:00:00Z,2021,6,0,270.25,270.25,67.136,-20.201,993.8,5.22,-999.0,yes,yes,no,300234068445280,BD2GHI,AOML,UNKNOWN,North
2021-09-27T07:00:02Z,2021,7,0,270.2917,270.2917,67.127,-20.225,994.0,5.2,-999.0,yes,yes,no,300234068445280,BD2GHI,AOML,UNKNOWN,North
2021-09-27T07:59:57Z,2021,8,0,270.3333,270.3333,67.116,-20.257,994.6,5.15,-999.0,yes,yes,no,300234068445280,BD2GHI,AOML,UNKNOWN,North
2021-09-27T09:04:01Z,2021,9,4,270.3778,270.3778,67.113,-20.297,995.2,5.11,-999.0,yes,yes,no,300234068445280,BD2GHI,AOML,UNKNOWN,North
2021-09-27T10:59:57Z,2021,11,0,270.4583,270.4583,67.092,-20.386,996.5,5.09,-999.0,yes,yes,no,300234068445280,BD2GHI,AOML,UNKNOWN,North
2021-09-27T12:00:00Z,2021,12,0,270.5,270.5,67.091,-20.422,997.1,5.07,-999.0,yes,yes,no,300234068445280,BD2GHI,AOML,UNKNOWN,North
2021-09-27T13:03:56Z,2021,13,4,270.5444,270.5444,67.102,-20.459,997.4,5.04,-999.0,yes,yes,no,300234068445280,BD2GHI,AOML,UNKNOWN,North
2021-09-27T14:02:58Z,2021,14,3,270.5854,270.5854,67.094,-20.465,997.5,4.95,-999.0,yes,yes,no,300234068445280,BD2GHI,AOML,UNKNOWN,North
2021-09-27T15:00:00Z,2021,15,0,270.625,270.625,67.097,-20.468,996.7,4.89,-999.0,yes,yes,no,300234068445280,BD2GHI,AOML,UNKNOWN,North
2021-09-27T16:00:02Z,2021,16,0,270.6667,270.6667,67.095,-20.467,996.9,4.83,-999.0,yes,yes,no,300234068445280,BD2GHI,AOML,UNKNOWN,North
2021-09-27T16:59:57Z,2021,17,0,270.7083,270.7083,67.085,-20.465,995.9,4.78,-999.0,yes,yes,no,300234068445280,BD2GHI,AOML,UNKNOWN,North
2021-09-27T18:00:00Z,2021,18,0,270.75,270.75,67.08,-20.474,995.2,4.76,-999.0,yes,yes,no,300234068445280,BD2GHI,AOML,UNKNOWN,North
2021-09-27T19:02:03Z,2021,19,2,270.7931,270.7931,67.076,-20.49,995.2,4.75,-999.0,yes,yes,no,300234068445280,BD2GHI,AOML,UNKNOWN,North
2021-09-27T19:59:57Z,2021,20,0,270.8333,270.8333,67.072,-20.512,997.5,4.74,-999.0,yes,yes,no,300234068445280,BD2GHI,AOML,UNKNOWN,North
2021-09-27T21:00:00Z,2021,21,0,270.875,270.875,67.071,-20.537,999.9,4.75,-999.0,yes,yes,no,300234068445280,BD2GHI,AOML,UNKNOWN,North
2021-09-27T22:02:03Z,2021,22,2,270.9181,270.9181,67.072,-20.561,1002.0,4.75,-999.0,yes,yes,no,300234068445280,BD2GHI,AOML,UNKNOWN,North
2021-09-27T22:59:57Z,2021,23,0,270.9583,270.9583,67.076,-20.581,1003.9,4.77,-999.0,yes,yes,no,300234068445280,BD2GHI,AOML,UNKNOWN,North
2021-09-28T00:00:00Z,2021,0,0,271.0,271.0,67.081,-20.591,1005.3,4.78,-999.0,yes,yes,no,300234068445280,BD2GHI,AOML,UNKNOWN,North
2021-09-28T01:01:03Z,2021,1,1,271.0424,271.0424,67.083,-20.603,1005.9,4.78,-999.0,yes,yes,no,300234068445280,BD2GHI,AOML,UNKNOWN,North
2021-09-28T02:03:59Z,2021,2,4,271.0861,271.0861,-90.0,-180.0,1006.1,4.78,-999.0,yes,yes,no,300234068445280,BD2GHI,AOML,UNKNOWN,North
2021-09-28T03:04:01Z,2021,3,4,271.1278,271.1278,-90.0,-180.0,1005.6,4.78,-999.0,yes,yes,no,300234068445280,BD2GHI,AOML,UNKNOWN,North
2021-09-28T04:03:56Z,2021,4,4,271.1694,271.1694,67.096,-20.603,1004.8,4.78,-999.0,yes,yes,no,300234068445280,BD2GHI,AOML,UNKNOWN,North
2021-09-28T04:59:57Z,2021,5,0,271.2083,271.2083,67.09,-20.613,1004.0,4.79,-999.0,yes,yes,no,300234068445280,BD2GHI,AOML,UNKNOWN,North
2021-09-28T06:00:00Z,2021,6,0,271.25,271.25,67.083,-20.631,1003.2,4.81,-999.0,yes,yes,no,300234068445280,BD2GHI,AOML,UNKNOWN,North
2021-09-28T07:00:02Z,2021,7,0,271.2917,271.2917,67.075,-20.661,1001.8,4.82,-999.0,yes,yes,no,300234068445280,BD2GHI,AOML,UNKNOWN,North
2021-09-28T08:00:57Z,2021,8,1,271.334,271.334,67.066,-20.707,999.5,4.82,-999.0,yes,yes,no,300234068445280,BD2GHI,AOML,UNKNOWN,North